Simultaneous Nadir Overpasses (SNOs) Predictions

Prediction of SNOs between LANDSAT-8 and NOAA-19 Satellite Orbit:

Table of predicted SNOs for the next 14.0 days since TLE Epoch: 11/16/2019
Index Date (LANDSAT-8) Time (LANDSAT-8) Lat,Lon (LANDSAT-8) SZA (LANDSAT-8 ) Date (NOAA-19) Time (NOAA-19) Lat,Lon (NOAA-19) SZA (NOAA-19 ) Distance(km) Time Diff (sec)
1 11/18/2019 05:29:07 79.24, 119.95 99.37 11/18/2019 05:28:42 79.26, 119.93 99.38 1.86 25
2 11/18/2019 06:18:35 -79.21, -72.63 80.67 11/18/2019 06:19:45 -79.23, -72.58 80.63 2.62 70
3 11/20/2019 11:02:50 -79.28,-143.22 80.07 11/20/2019 11:02:07 -79.25,-143.27 80.11 3.70 43
4 11/20/2019 11:52:17 79.24, 24.14 99.89 11/20/2019 11:53:04 79.25, 24.04 99.90 2.21 47
5 11/22/2019 16:36:33 79.27, -46.73 100.40 11/22/2019 16:35:27 79.29, -46.83 100.39 2.64 66
6 11/22/2019 17:26:01 -79.24, 120.72 79.64 11/22/2019 17:26:29 -79.25, 120.72 79.62 1.24 28
7 11/24/2019 22:59:43 79.26,-142.57 100.84 11/24/2019 22:59:48 79.24,-142.45 100.84 3.30 5
8 11/27/2019 04:33:27 -79.26, -46.00 78.75 11/27/2019 04:33:13 -79.28, -46.04 78.74 1.99 14
9 11/27/2019 05:22:57 79.09, 120.58 101.03 11/27/2019 05:24:04 79.04, 123.24 101.22 56.41 67
10 11/29/2019 10:07:09 79.28, 50.66 101.66 11/29/2019 10:06:33 79.27, 50.78 101.65 2.41 36




NCC Satellite Simultaneous Nadir Overpasses (SNOs) Prediction Service
